This is the latest recevied weather packets stored in our database for station/object KD5FHA. If no packets are shown the sender has not sent any weather packets the latest 10 day(s).
| Time | Temp. | Humidity | Pressure | Rain* | Wind** | Luminosity | Snow |
|---|---|---|---|---|---|---|---|
| 1778032932 | 25° C | 65% | 1007 hPa | 0 mm | - | 0 W/m² | - |
| 1778032630 | 25° C | 64% | 1006.9 hPa | 0 mm | - | 0 W/m² | - |
| 1778032327 | 25.56° C | 63% | 1006.8 hPa | 0 mm | - | 0 W/m² | - |
| 1778032024 | 26.11° C | 63% | 1006.8 hPa | 0 mm | - | 0 W/m² | - |
| 1778031720 | 26.11° C | 63% | 1006.4 hPa | 0 mm | - | 0 W/m² | - |
| 1778031418 | 26.11° C | 62% | 1006.6 hPa | 0 mm | - | 0 W/m² | - |
| 1778031114 | 26.67° C | 62% | 1006.5 hPa | 0 mm | - | 0 W/m² | - |
| 1778030811 | 26.67° C | 62% | 1006.4 hPa | 0 mm | - | 0 W/m² | - |
| 1778030508 | 26.67° C | 62% | 1006.3 hPa | 0 mm | - | 0 W/m² | - |
| 1778030205 | 26.67° C | 61% | 1006.2 hPa | 0 mm | - | 0 W/m² | - |
| 1778029901 | 27.22° C | 61% | 1006.5 hPa | 0 mm | - | 1 W/m² | - |
| 1778029600 | 27.22° C | 60% | 1006.3 hPa | 0 mm | - | 3 W/m² | - |
| 1778029297 | 27.22° C | 60% | 1006.2 hPa | 0 mm | - | 4 W/m² | - |
| 1778028994 | 27.22° C | 60% | 1005.8 hPa | 0 mm | - | 6 W/m² | - |
| 1778028690 | 27.22° C | 60% | 1005.8 hPa | 0 mm | - | 11 W/m² | - |
| 1778028387 | 27.78° C | 60% | 1006 hPa | 0 mm | - | 8 W/m² | - |
| 1778028084 | 27.78° C | 60% | 1006.1 hPa | 0 mm | - | 6 W/m² | - |
| 1778027780 | 27.78° C | 60% | 1006 hPa | 0 mm | - | 7 W/m² | - |
| 1778027476 | 28.33° C | 61% | 1005.8 hPa | 0 mm | - | 8 W/m² | - |
| 1778027172 | 28.33° C | 62% | 1005.8 hPa | 0 mm | - | 17 W/m² | - |
| 1778026869 | 28.89° C | 70% | 1005.9 hPa | 0 mm | - | 19 W/m² | - |
| 1778026565 | 29.44° C | 69% | 1005.9 hPa | 0 mm | - | 31 W/m² | - |
| 1778026262 | 28.89° C | 69% | 1005.8 hPa | 0 mm | - | 54 W/m² | - |
| 1778025960 | 28.89° C | 69% | 1005.7 hPa | 0 mm | - | 32 W/m² | - |
| 1778025657 | 28.89° C | 69% | 1005.6 hPa | 0 mm | - | 43 W/m² | - |
* Rain latest hour (hover to see other rain measurements)
** Current wind speed in m/s (hover to see current wind gust speed)